Weather History for Golovin, AK

Change the Weather History Date:

Tuesday, March 12, 2013

  Actual Average Record
Temperature  
Mean Temperature -2 °F -  
Max Temperature 8 °F - - ()
Min Temperature -11 °F - - ()
Degree Days  
Heating Degree Days 66    
Moisture  
Dew Point -14 °F    
Average Humidity 58    
Maximum Humidity 100    
Minimum Humidity 22    
Precipitation  
Precipitation 0.04 in - - ()
Sea Level Pressure  
Sea Level Pressure 30.62 in    
Wind  
Wind Speed 9 mph (NW)    
Max Wind Speed 13 mph    
Max Gust Speed -    
Visibility 10 miles    
Events      
T = Trace of Precipitation, MM = Missing Value Source: NWS Daily Summary

Daily Weather History Graph

Daily Weather History Graph

Search for Another Location

Airport:

Trip Planner

Search our weather history database for the weather conditions in past years. The results will help you decide how hot, cold, wet, or windy it might be!

Date:

Astronomy

Mar. 12, 2013 Rise Set
Actual Time 9:19 AM AKDT 8:45 PM AKDT
Civil Twilight 8:31 AM AKDT 9:33 PM AKDT
Nautical Twilight 7:34 AM AKDT 10:30 PM AKDT
Astronomical Twilight 6:32 AM AKDT 11:33 PM AKDT
Moon 8:57 AM AKDT (3/12) 11:02 PM AKDT (3/12)
Length of Visible Light 13h 01m
Length of Day
11h 25m
New Moon, 1% of the Moon is Illuminated
Mar 12
New Moon
Mar 19
First Quarter
Mar 27
Full
Apr 2
Last Quarter
Apr 10
New

Hourly Weather History & Observations

Time (AKDT) Temp. Windchill Dew Point Humidity Pressure Visibility Wind Dir Wind Speed Gust Speed Precip Events Conditions
12:16 AM -4.0 °F -21.2 °F -27.4 °F 32% 30.74 in 10.0 mi NW 10.4 mph - N/A   Clear
12:36 AM -7.6 °F -25.7 °F -9.4 °F 92% 30.74 in 10.0 mi NW 10.4 mph - N/A   Clear
12:56 AM -7.6 °F -24.6 °F -20.2 °F 54% 30.74 in 10.0 mi NW 9.2 mph - N/A   Clear
1:16 AM -7.6 °F -24.6 °F -25.6 °F 41% 30.74 in 10.0 mi NNW 9.2 mph - N/A   Clear
1:36 AM -5.8 °F -22.4 °F -13.0 °F 71% 30.73 in 10.0 mi NNW 9.2 mph - N/A   Clear
1:56 AM -5.8 °F -19.9 °F - N/A% 30.73 in 10.0 mi NNW 6.9 mph - N/A   Clear
2:16 AM -2.2 °F -15.6 °F - N/A% 30.72 in 10.0 mi NW 6.9 mph - N/A   Clear
2:36 AM -5.8 °F -22.4 °F - N/A% 30.72 in 10.0 mi NW 9.2 mph - N/A   Clear
2:56 AM -7.6 °F -26.6 °F - N/A% 30.72 in 10.0 mi NNW 11.5 mph - N/A   Clear
3:16 AM -9.4 °F -26.8 °F -31.0 °F 34% 30.72 in 10.0 mi NW 9.2 mph - N/A   Clear
3:36 AM -9.4 °F -26.8 °F - N/A% 30.72 in 10.0 mi NW 9.2 mph - N/A   Clear
3:56 AM -7.6 °F -25.7 °F - N/A% 30.71 in 10.0 mi NW 10.4 mph - N/A   Clear
4:16 AM -9.4 °F -26.8 °F - N/A% 30.71 in 10.0 mi NW 9.2 mph - N/A   Clear
4:36 AM -9.4 °F -25.6 °F - N/A% 30.71 in 10.0 mi NNW 8.1 mph - N/A   Clear
4:56 AM -9.4 °F -25.6 °F -9.4 °F 100% 30.71 in 10.0 mi NW 8.1 mph - N/A   Clear
5:16 AM -7.6 °F -26.6 °F -25.6 °F 41% 30.71 in 10.0 mi NW 11.5 mph - N/A   Clear
5:36 AM -9.4 °F -25.6 °F -9.4 °F 100% 30.71 in 10.0 mi NW 8.1 mph - N/A   Clear
5:56 AM -9.4 °F -24.3 °F -27.4 °F 41% 30.70 in 10.0 mi NNW 6.9 mph - N/A   Clear
6:16 AM -7.6 °F -18.8 °F -13.0 °F 77% 30.70 in 10.0 mi NW 4.6 mph - N/A   Clear
6:36 AM -7.6 °F -22.1 °F -20.2 °F 54% 30.69 in 10.0 mi NW 6.9 mph - 0.01 in   Clear
6:56 AM -7.6 °F -24.6 °F -18.4 °F 59% 30.68 in 10.0 mi NW 9.2 mph - 0.01 in   Clear
7:16 AM -9.4 °F -28.9 °F -23.8 °F 49% 30.68 in 10.0 mi NNW 11.5 mph - N/A   Clear
7:36 AM -9.4 °F -28.9 °F -18.4 °F 65% 30.67 in 10.0 mi NW 11.5 mph - N/A   Clear
7:56 AM -9.4 °F -26.8 °F - N/A% 30.67 in 10.0 mi NNW 9.2 mph - N/A   Clear
8:16 AM -9.4 °F -26.8 °F - N/A% 30.67 in 10.0 mi NW 9.2 mph - 0.01 in   Clear
8:36 AM -7.6 °F -24.6 °F - N/A% 30.66 in 10.0 mi NW 9.2 mph - 0.01 in   Clear
8:56 AM -7.6 °F -25.7 °F -27.4 °F 38% 30.66 in 10.0 mi NW 10.4 mph - 0.01 in   Clear
9:16 AM -9.4 °F -27.9 °F -27.4 °F 41% 30.66 in 10.0 mi NW 10.4 mph - N/A   Clear
9:36 AM -9.4 °F -26.8 °F -23.8 °F 49% 30.65 in 10.0 mi NW 9.2 mph - N/A   Clear
9:56 AM -11.2 °F -29.0 °F -20.2 °F 64% 30.65 in 10.0 mi NW 9.2 mph - N/A   Clear
10:16 AM -11.2 °F -30.1 °F -20.2 °F 64% 30.65 in 10.0 mi NW 10.4 mph - N/A   Clear
10:36 AM -9.4 °F -28.9 °F - N/A% 30.65 in 10.0 mi NW 11.5 mph - N/A   Clear
10:56 AM -7.6 °F -24.6 °F - N/A% 30.65 in 10.0 mi NW 9.2 mph - N/A   Clear
11:16 AM -7.6 °F -24.6 °F - N/A% 30.64 in 10.0 mi NW 9.2 mph - N/A   Clear
11:36 AM -7.6 °F -24.6 °F -29.2 °F 34% 30.64 in 10.0 mi NW 9.2 mph - N/A   Clear
11:56 AM -5.8 °F -23.4 °F -25.6 °F 38% 30.63 in 10.0 mi NW 10.4 mph - 0.01 in   Clear
12:16 PM -5.8 °F -21.2 °F -20.2 °F 50% 30.63 in 10.0 mi NW 8.1 mph - N/A   Clear
12:36 PM -5.8 °F -21.2 °F -16.6 °F 60% 30.63 in 10.0 mi NW 8.1 mph - 0.01 in   Clear
12:56 PM -5.8 °F -21.2 °F -14.8 °F 65% 30.62 in 10.0 mi NW 8.1 mph - 0.01 in   Clear
1:16 PM -4.0 °F -17.8 °F -25.6 °F 35% 30.62 in 10.0 mi WNW 6.9 mph - N/A   Clear
1:36 PM -2.2 °F -16.8 °F -9.4 °F 71% 30.61 in 10.0 mi NNW 8.1 mph - N/A   Clear
1:56 PM -2.2 °F -18.0 °F - N/A% 30.61 in 10.0 mi NW 9.2 mph - N/A   Clear
2:16 PM -2.2 °F -15.6 °F -27.4 °F 29% 30.60 in 10.0 mi NW 6.9 mph - N/A   Clear
2:36 PM -0.4 °F -12.0 °F -20.2 °F 39% 30.60 in 10.0 mi NW 5.8 mph - N/A   Clear
2:56 PM 1.4 °F -11.3 °F -14.8 °F 47% 30.59 in 10.0 mi NW 6.9 mph - N/A   Clear
3:16 PM 1.4 °F -11.3 °F -11.2 °F 56% 30.59 in 10.0 mi NNW 6.9 mph - N/A   Clear
3:36 PM 1.4 °F -11.3 °F -11.2 °F 56% 30.58 in 10.0 mi NW 6.9 mph - N/A   Clear
3:56 PM 1.4 °F -11.3 °F -11.2 °F 56% 30.58 in 10.0 mi NW 6.9 mph - N/A   Clear
4:16 PM 1.4 °F -9.9 °F -4.0 °F 78% 30.57 in 10.0 mi NW 5.8 mph - N/A   Clear
4:36 PM 3.2 °F -7.8 °F -22.0 °F 30% 30.56 in 10.0 mi NW 5.8 mph - N/A   Clear
4:56 PM 3.2 °F -7.8 °F -13.0 °F 47% 30.55 in 10.0 mi NW 5.8 mph - N/A   Clear
5:16 PM 3.2 °F -7.8 °F -14.8 °F 43% 30.55 in 10.0 mi NW 5.8 mph - N/A   Clear
5:36 PM 6.8 °F -3.5 °F -13.0 °F 40% 30.54 in 10.0 mi NW 5.8 mph - N/A   Clear
5:56 PM 6.8 °F -2.0 °F -5.8 °F 56% 30.54 in 10.0 mi NNW 4.6 mph - N/A   Clear
6:16 PM 8.6 °F -1.3 °F -0.4 °F 67% 30.53 in 10.0 mi NNW 5.8 mph - N/A   Clear
6:36 PM 8.6 °F 2.0 °F -23.8 °F 22% 30.53 in 10.0 mi NNW 3.5 mph - N/A   Clear
6:56 PM 8.6 °F 0.1 °F -5.8 °F 52% 30.52 in 10.0 mi NW 4.6 mph - N/A   Clear
7:16 PM 8.6 °F -1.3 °F -0.4 °F 67% 30.51 in 10.0 mi NW 5.8 mph - N/A   Clear
7:36 PM 8.6 °F 0.1 °F 1.4 °F 73% 30.50 in 10.0 mi NW 4.6 mph - N/A   Clear
7:56 PM 6.8 °F -5.9 °F -0.4 °F 72% 30.50 in 10.0 mi NNW 8.1 mph - N/A   Clear
8:16 PM 6.8 °F -5.9 °F -0.4 °F 72% 30.49 in 10.0 mi NNW 8.1 mph - N/A   Clear
8:36 PM 8.6 °F -2.6 °F 3.2 °F 79% 30.49 in 10.0 mi North 6.9 mph - N/A   Clear
8:56 PM 8.6 °F -2.6 °F -0.4 °F 67% 30.49 in 10.0 mi NNW 6.9 mph - N/A   Clear
9:56 PM 8.6 °F -2.6 °F 3.2 °F 79% 30.47 in 10.0 mi NNW 6.9 mph - N/A   Clear
10:16 PM 1.4 °F -14.5 °F -7.6 °F 66% 30.47 in 10.0 mi NW 10.4 mph - N/A   Clear
10:36 PM -0.4 °F -17.6 °F -5.8 °F 78% 30.46 in 10.0 mi NW 11.5 mph - N/A   Scattered Clouds
10:56 PM -2.2 °F -18.9 °F -9.4 °F 71% 30.46 in 10.0 mi NW 10.4 mph - N/A   Scattered Clouds
11:16 PM -2.2 °F -19.9 °F -2.2 °F 100% 30.46 in 10.0 mi NW 11.5 mph - N/A   Clear
11:36 PM -0.4 °F -18.4 °F -7.6 °F 72% 30.46 in 10.0 mi NW 12.7 mph - N/A   Mostly Cloudy
11:56 PM -0.4 °F -18.4 °F -9.4 °F 66% 30.45 in 10.0 mi NW 12.7 mph - N/A   Scattered Clouds